contact:dominique.lefevre@mio.osupytheas.fr, maurice.libes@osupytheas.fr
Project:EMSO Ligure-ouest http://www.emso-fr.org/EMSO-France
Sensor Aquadopp, line 04 Serial AQD8517 
DOI : "https://doi.org/10.17882/74513; https://doi.org/10.17882/83244" 
Title:EMSO Ligure Ouest : Data ligne ALBATROSS capteur AQUADOPP - deploiement 2021
Id,Date,Profondeur,Latitude,Longitude,X_East,Y_North,Z_Up,Amplitude_X,Amplitude_Y,Amplitude_Z,Batterie,SoundSpeed,Heading,Pitch,Roll,Pressure,Temperature,Speed,Direction
, , m, degrees North, degrees East, m.s-1, m.s-1,m.s-1, 1, 1, 1, Volt, m.s-1, degree, degree, degree, dbar, degree_C, m.s-1, degree
01,2022-05-17T21:30:00,500.0,42.79,6.0312,-0.087,0.042,0.019,69.0,63.0,64.0,11.8,1506.5,306.2,-0.4,0.6,452.26,13.86,0.096,295.8
01,2022-05-17T22:00:00,500.0,42.79,6.0312,-0.091,0.037,-0.008,70.0,63.0,65.0,11.8,1506.5,301.7,-0.3,0.7,452.179,13.87,0.098,292.1
01,2022-05-17T22:30:00,500.0,42.79,6.0312,-0.064,0.06,0.0,70.0,63.0,67.0,11.8,1506.5,317.7,-0.1,0.6,452.196,13.88,0.087,313.1
01,2022-05-17T23:00:00,500.0,42.79,6.0312,-0.061,0.048,-0.003,69.0,65.0,64.0,11.8,1506.6,307.5,-0.4,0.6,452.131,13.89,0.077,308.2
01,2022-05-17T23:30:00,500.0,42.79,6.0312,-0.097,0.004,-0.005,70.0,63.0,64.0,11.8,1506.6,276.8,0.0,0.5,452.134,13.9,0.097,272.4
01,2022-05-18T00:00:00,500.0,42.79,6.0312,-0.068,0.048,0.007,70.0,64.0,65.0,11.8,1506.6,310.9,-0.3,0.8,452.127,13.9,0.083,305.2
01,2022-05-18T00:30:00,500.0,42.79,6.0312,-0.075,0.033,0.015,71.0,63.0,66.0,11.8,1506.6,304.0,-0.6,0.8,452.053,13.89,0.081,293.7
01,2022-05-18T01:00:00,500.0,42.79,6.0312,-0.081,0.032,0.002,70.0,65.0,65.0,11.8,1506.6,294.2,-0.5,0.7,452.046,13.89,0.087,291.6
01,2022-05-18T01:30:00,500.0,42.79,6.0312,-0.086,0.054,0.011,68.0,64.0,65.0,11.8,1506.6,305.3,-0.2,0.4,452.008,13.89,0.101,302.1
01,2022-05-18T02:00:00,500.0,42.79,6.0312,-0.052,0.049,0.011,70.0,64.0,64.0,11.8,1506.5,323.5,0.3,0.7,451.96,13.88,0.071,313.3
01,2022-05-18T02:30:00,500.0,42.79,6.0312,-0.084,0.061,0.008,71.0,65.0,65.0,11.8,1506.4,300.6,-0.5,0.7,451.909,13.85,0.103,306.0
01,2022-05-18T03:00:00,500.0,42.79,6.0312,-0.055,0.079,0.001,69.0,63.0,65.0,11.8,1506.5,333.9,0.1,0.7,451.955,13.86,0.096,325.2
01,2022-05-18T03:30:00,500.0,42.79,6.0312,-0.075,0.048,0.0,69.0,65.0,65.0,11.8,1506.5,313.8,0.0,0.7,451.942,13.87,0.089,302.6
01,2022-05-18T04:00:00,500.0,42.79,6.0312,-0.094,0.001,0.0,69.0,65.0,65.0,11.8,1506.5,285.0,-0.3,0.5,451.988,13.88,0.094,270.6
01,2022-05-18T04:30:00,500.0,42.79,6.0312,-0.058,0.047,-0.006,69.0,64.0,64.0,11.8,1506.4,315.5,-0.4,0.6,451.982,13.85,0.074,309.0
01,2022-05-18T05:00:00,500.0,42.79,6.0312,-0.091,0.009,-0.003,69.0,65.0,64.0,11.8,1506.4,285.4,-0.2,0.5,451.979,13.84,0.091,275.6
01,2022-05-18T05:30:00,500.0,42.79,6.0312,-0.066,0.03,-0.003,68.0,65.0,65.0,11.8,1506.4,309.7,0.1,0.4,452.02,13.83,0.072,294.4
01,2022-05-18T06:00:00,500.0,42.79,6.0312,-0.069,0.024,0.009,71.0,64.0,65.0,11.8,1506.4,293.6,-0.3,0.8,452.026,13.83,0.073,289.2
01,2022-05-18T06:30:00,500.0,42.79,6.0312,-0.073,0.015,0.007,68.0,64.0,64.0,11.8,1506.4,292.6,-0.3,0.6,452.061,13.84,0.074,281.6
01,2022-05-18T07:00:00,500.0,42.79,6.0312,-0.057,0.037,0.024,70.0,63.0,65.0,11.8,1506.4,307.9,0.0,0.6,452.035,13.83,0.067,303.0
01,2022-05-18T07:30:00,500.0,42.79,6.0312,-0.063,0.032,0.005,71.0,68.0,66.0,11.8,1506.3,303.5,0.0,0.6,452.11,13.82,0.07,296.9
01,2022-05-18T08:00:00,500.0,42.79,6.0312,-0.058,0.013,-0.009,69.0,65.0,66.0,11.8,1506.4,287.6,-0.2,0.6,452.033,13.84,0.059,282.6
01,2022-05-18T08:30:00,500.0,42.79,6.0312,-0.051,0.004,-0.002,72.0,68.0,67.0,11.8,1506.4,284.3,-0.2,0.8,452.087,13.84,0.051,274.5
01,2022-05-18T09:00:00,500.0,42.79,6.0312,-0.04,0.01,0.003,71.0,71.0,67.0,11.8,1506.4,279.1,-0.2,0.7,452.069,13.84,0.041,284.0
01,2022-05-18T09:30:00,500.0,42.79,6.0312,-0.044,0.014,0.017,69.0,64.0,64.0,11.8,1506.4,290.9,-0.2,0.6,452.024,13.85,0.046,287.6
01,2022-05-18T10:00:00,500.0,42.79,6.0312,-0.043,0.01,0.004,66.0,68.0,75.0,11.8,1506.4,293.1,-0.2,0.6,452.011,13.85,0.044,283.1
01,2022-05-18T10:30:00,500.0,42.79,6.0312,-0.031,0.005,0.01,68.0,67.0,61.0,11.8,1506.4,287.6,-0.1,0.6,451.996,13.84,0.031,279.2
01,2022-05-18T11:00:00,500.0,42.79,6.0312,-0.021,-0.002,0.01,69.0,63.0,61.0,11.8,1506.4,288.3,-0.2,0.6,451.935,13.84,0.021,264.6
01,2022-05-18T11:30:00,500.0,42.79,6.0312,-0.007,0.0,-0.006,67.0,64.0,64.0,11.8,1506.4,288.5,-0.2,0.8,451.937,13.84,0.007,270.0
01,2022-05-18T12:00:00,500.0,42.79,6.0312,-0.031,-0.005,-0.001,67.0,63.0,62.0,11.8,1506.4,277.9,0.0,0.5,451.939,13.83,0.031,260.8
01,2022-05-18T12:30:00,500.0,42.79,6.0312,-0.028,-0.015,0.008,70.0,61.0,70.0,11.8,1506.3,272.4,-0.1,0.7,451.923,13.82,0.031,241.8
01,2022-05-18T13:00:00,500.0,42.79,6.0312,-0.023,-0.03,0.005,68.0,64.0,66.0,11.8,1506.4,262.0,-0.2,0.7,451.899,13.83,0.037,217.5
01,2022-05-18T13:30:00,500.0,42.79,6.0312,-0.033,-0.038,-0.012,72.0,66.0,67.0,11.8,1506.3,256.1,-0.1,0.7,451.857,13.82,0.05,221.0
01,2022-05-18T14:00:00,500.0,42.79,6.0312,-0.031,-0.048,-0.002,71.0,65.0,64.0,11.8,1506.3,248.8,-0.1,0.7,451.877,13.81,0.057,212.9
01,2022-05-18T14:30:00,500.0,42.79,6.0312,-0.036,-0.062,0.018,68.0,65.0,66.0,11.8,1506.4,246.3,-0.2,0.6,451.829,13.83,0.071,210.1
01,2022-05-18T15:00:00,500.0,42.79,6.0312,-0.018,-0.071,0.018,67.0,65.0,63.0,11.8,1506.4,229.8,-0.3,0.6,451.786,13.83,0.073,194.2
01,2022-05-18T15:30:00,500.0,42.79,6.0312,-0.035,-0.061,-0.002,70.0,65.0,65.0,11.8,1506.4,242.9,-0.1,0.6,451.804,13.84,0.07,209.8
01,2022-05-18T16:00:00,500.0,42.79,6.0312,-0.016,-0.075,0.0,68.0,63.0,62.0,11.8,1506.4,220.0,-0.2,0.7,451.83,13.83,0.076,192.0
01,2022-05-18T16:30:00,500.0,42.79,6.0312,-0.058,-0.055,0.003,71.0,64.0,64.0,11.8,1506.3,236.8,0.0,0.7,451.836,13.82,0.079,226.5
01,2022-05-18T17:00:00,500.0,42.79,6.0312,-0.033,-0.077,-0.013,69.0,65.0,61.0,11.8,1506.3,221.9,-0.2,0.6,451.839,13.82,0.083,203.2
01,2022-05-18T17:30:00,500.0,42.79,6.0312,-0.065,-0.062,0.019,70.0,64.0,66.0,11.8,1506.4,243.4,-0.2,0.7,451.884,13.85,0.089,226.4
01,2022-05-18T18:00:00,500.0,42.79,6.0312,-0.057,-0.064,0.01,67.0,63.0,62.0,11.8,1506.4,248.0,-0.2,0.5,451.933,13.85,0.085,221.7
01,2022-05-18T18:30:00,500.0,42.79,6.0312,-0.048,-0.064,-0.005,70.0,64.0,65.0,11.8,1506.4,232.0,0.0,0.6,451.956,13.84,0.079,216.9
01,2022-05-18T19:00:00,500.0,42.79,6.0312,-0.059,-0.061,-0.007,70.0,63.0,63.0,11.8,1506.3,236.1,0.0,0.7,451.979,13.82,0.084,224.0
01,2022-05-18T19:30:00,500.0,42.79,6.0312,-0.007,-0.079,-0.002,68.0,62.0,63.0,11.8,1506.3,217.2,-0.3,0.6,452.045,13.82,0.079,185.1
01,2022-05-18T20:00:00,500.0,42.79,6.0312,-0.088,-0.017,0.019,67.0,62.0,62.0,11.8,1506.3,269.6,-0.2,0.8,452.094,13.82,0.089,259.1
01,2022-05-18T20:30:00,500.0,42.79,6.0312,-0.054,-0.084,-0.019,67.0,61.0,61.0,11.8,1506.3,224.5,0.0,0.5,452.125,13.81,0.099,212.7
01,2022-05-18T21:00:00,500.0,42.79,6.0312,-0.063,-0.071,0.0,68.0,62.0,61.0,11.8,1506.3,246.0,0.1,0.4,452.139,13.82,0.094,221.6
